USGS - science for a changing world

Kansas Water Science Center

Jump to content

Jump back to navigation

Current Streamflow Conditions

Welcome to the U.S. Geological Survey (USGS) Web page for the water resources of Kansas. Here you'll find information on Kansas's rivers and streams. You'll also find information about groundwater, water quality, and many other topics. The USGS operates the most extensive satellite network of stream-gaging stations in the state, many of which form the backbone of flood-warning systems.

The Kansas Water Science Center provides current ("real-time") stream stage in Kansas and streamflow, water-quality, and groundwater levels for over 200 sites.
The USGS provides National ("real-time") stream stage and streamflow, water-quality, and groundwater levels for over 7000 sites.

Of Current Interest

USGS Scientific Investigations Report: Streamflow Characteristics and Trends Along Soldier Creek, Northeast Kansas

Press Release: Human Activity Alters Streamflow throughout Kansas

Water-level and recoverable water in storage changes, High Plains aquifer, predevelopment to 2015 and 2013-2015.

USGS WaterAlert Service Turn Around Don't Drown

Now you can receive instant, customized updates about water conditions by subscribing to WaterAlert, a new service from the U.S. Geological Survey. WaterAlert allows you to receive daily or hourly updates about current conditions in rivers, lakes and groundwater when they match conditions of concern to you.

Kansas Lake Report

Kansas Lake Report

Highlighted Publications

The Kansas Water Science Center produces publications about water resources.   Search our publications

Kansas Earthquakes - Last 30 days

  1. 2.5 13km SW of Caldwell, Kansas 2017-10-21 13:15:10 CDT
  2. 3.2 11km SW of Caldwell, Kansas 2017-10-21 11:03:48 CDT
  3. 2.7 11km W of Belle Plaine, Kansas 2017-10-19 04:19:55 CDT
  4. 2.7 6km SE of Mankato, Kansas 2017-10-13 21:13:34 CDT
  5. 1.75 17km S of Conway Springs, Kansas 2017-10-13 19:29:52 CDT
  6. 1.67 13km WSW of Conway Springs, Kansas 2017-10-12 01:48:08 CDT
  7. 1.76 13km WSW of Conway Springs, Kansas 2017-10-12 01:00:25 CDT
  8. 3.1 10km WNW of Harper, Kansas 2017-10-11 18:29:06 CDT
  9. 1.72 12km SW of Caldwell, Kansas 2017-10-11 10:21:15 CDT
  10. 1.78 5km E of Harper, Kansas 2017-10-10 22:22:04 CDT
  11. 2.5 19km SSE of Salina, Kansas 2017-10-10 15:25:25 CDT
  12. 1.5 2km E of Anthony, Kansas 2017-10-09 23:18:13 CDT
  13. 2.12 5km E of Harper, Kansas 2017-10-09 07:00:04 CDT
  14. 1.75 5km E of Harper, Kansas 2017-10-09 02:15:20 CDT
  15. 2.6 12km ESE of Anthony, Kansas 2017-10-08 20:27:38 CDT
  16. 2.6 4km E of Harper, Kansas 2017-10-08 15:20:18 CDT
  17. 2.5 16km SSE of Caldwell, Kansas 2017-10-08 06:41:42 CDT
  18. 1.83 12km SW of Caldwell, Kansas 2017-10-07 07:59:04 CDT
  19. 1.83 16km S of Anthony, Kansas 2017-10-04 12:54:08 CDT
  20. 2.3 15km SSE of Caldwell, Kansas 2017-10-01 23:46:44 CDT
  21. 2.36 20km SSE of Anthony, Kansas 2017-10-01 16:44:17 CDT
  22. 1.72 13km WSW of Conway Springs, Kansas 2017-10-01 01:49:27 CDT
  23. 1.64 13km ENE of Anthony, Kansas 2017-09-28 22:52:34 CDT
  24. 2.4 12km NW of Harper, Kansas 2017-09-28 10:22:16 CDT
  25. 2.8 16km NW of Harper, Kansas 2017-09-27 23:02:38 CDT
  26. 3.2 14km NW of Harper, Kansas 2017-09-27 22:56:54 CDT
  27. 1.79 13km WSW of Conway Springs, Kansas 2017-09-27 02:45:39 CDT
  28. 1.72 5km E of Harper, Kansas 2017-09-27 00:55:40 CDT
  29. 2.14 13km ENE of Anthony, Kansas 2017-09-27 00:44:35 CDT
  30. 2.7 13km ENE of Anthony, Kansas 2017-09-26 21:30:06 CDT
  31. 2.6 5km ESE of Harper, Kansas 2017-09-26 15:14:03 CDT
  32. 1.67 14km N of Caldwell, Kansas 2017-09-25 21:49:31 CDT
  33. 2.5 13km NW of Harper, Kansas 2017-09-25 17:27:15 CDT
  34. 2.04 5km E of Harper, Kansas 2017-09-25 02:58:05 CDT
06917500: Flow=1090cfs,Stage=15.83ft,Floodstage=38ft,2017-10-24 02:30,High,MARMATON R NR FORT SCOTT, KS 06915800: Flow=13200cfs,Stage=22.12ft,Floodstage=25ft,2017-10-24 02:45,High,MARAIS DES CYGNES R AT LA CYGNE, KS 07188000: Flow=3680cfs,Stage=9.32ft,Floodstage=20ft,2017-10-24 02:00,>90,Spring River near Quapaw, OK 07186000: Flow=1670cfs,Stage=4.17ft,Floodstage=19ft,2017-10-24 02:30,>90,Spring River near Waco, MO 07185000: Flow=13500cfs,Stage=10.89ft,Floodstage=15ft,2017-10-24 02:30,>90,Neosho River near Commerce, OK 07184000: Flow=288cfs,Stage=3.43ft,Floodstage=12ft,2017-10-24 02:45,>90,LIGHTNING C NR MCCUNE, KS 07183500: Flow=7150cfs,Stage=12.46ft,Floodstage=21ft,2017-10-24 02:00,>90,NEOSHO R NR PARSONS, KS 07169800: Flow=95.0cfs,Stage=3.38ft,2017-10-24 03:00,>90,ELK R AT ELK FALLS, KS 06917000: Flow=518cfs,Stage=5.79ft,Floodstage=22ft,2017-10-24 02:15,>90,L OSAGE R AT FULTON, KS 06916600: Flow=13300cfs,Stage=20.26ft,Floodstage=27ft,2017-10-24 02:45,>90,MARAIS DES CYGNES R NR KS-MO ST LINE, KS 06893500: Flow=213cfs,Stage=4.98ft,Floodstage=34ft,2017-10-24 02:45,>90,Blue River at Kansas City, MO 06868200: Flow=47.2cfs,Stage=3.67ft,2017-10-24 02:45,>90,SALINE R AT WILSON DAM, KS 06852500: Flow=90.2cfs,Stage=1.36ft,2017-10-24 02:15,>90,Courtland Canal at Nebraska-Kansas Stateline 07156900: Flow=18.0cfs,Stage=2.14ft,Floodstage=5ft,2017-10-24 02:00,<10,Cimarron River near Forgan, OK 06857100: Flow=29.2cfs,Stage=4.35ft,2017-10-24 02:30,<10,REPUBLICAN R AT JUNCTION CITY, KS 06821500: Flow=0.00cfs,Stage=4.71ft,Floodstage=12ft,2017-10-24 01:30,<10,Arikaree River at Haigler, Nebr. 06823500: Flow=0.00cfs,Stage=0.75ft,Floodstage=11ft,2017-10-24 01:45,<10,Buffalo Creek near Haigler, Nebr. 07183000: Flow=885cfs,Stage=7.56ft,Floodstage=15ft,2017-10-24 02:30,76-90,NEOSHO R NR IOLA, KS 07179795: Flow=15.8cfs,Stage=4.93ft,2017-10-24 02:30,76-90,N COTTONWOOD R BL MARION LK, KS 07172000: Flow=141cfs,Stage=2.03ft,2017-10-24 03:00,76-90,CANEY R NR ELGIN, KS 07170500: Flow=1140cfs,Stage=5.10ft,Floodstage=30ft,2017-10-24 03:00,76-90,VERDIGRIS R AT INDEPENDENCE, KS 07169500: Flow=153cfs,Stage=3.65ft,Floodstage=17ft,2017-10-24 03:00,76-90,FALL R AT FREDONIA, KS 07167500: Flow=27.1cfs,Stage=1.97ft,2017-10-24 02:15,76-90,OTTER C AT CLIMAX, KS 07147800: Flow=345cfs,Stage=2.00ft,Floodstage=18ft,2017-10-24 03:00,76-90,WALNUT R AT WINFIELD, KS 07146500: Flow=1370cfs,Stage=4.52ft,Floodstage=11ft,2017-10-24 03:00,76-90,ARKANSAS R AT ARKANSAS CITY, KS 07145700: Flow=19.1cfs,Stage=4.27ft,Floodstage=19ft,2017-10-24 03:00,76-90,SLATE C AT WELLINGTON, KS 07139000: Flow=112cfs,Stage=6.29ft,Floodstage=10ft,2017-10-24 02:30,76-90,ARKANSAS R AT GARDEN CITY, KS 07138000: Flow=242cfs,Stage=5.21ft,Floodstage=10ft,2017-10-24 02:15,76-90,ARKANSAS R AT SYRACUSE, KS 07137500: Flow=194cfs,Stage=3.57ft,Floodstage=8ft,2017-10-24 02:15,76-90,ARKANSAS R NR COOLIDGE, KS 06913500: Flow=686cfs,Stage=6.66ft,Floodstage=31ft,2017-10-24 02:30,76-90,MARAIS DES CYGNES R NR OTTAWA, KS 06913000: Flow=392cfs,Stage=2.61ft,Floodstage=20ft,2017-10-24 02:30,76-90,MARAIS DES CYGNES R NR POMONA, KS 06893300: Flow=32.2cfs,Stage=5.95ft,Floodstage=14ft,2017-10-24 02:15,76-90,INDIAN C AT OVERLAND PARK, KS 06892350: Flow=4500cfs,Stage=6.46ft,Floodstage=26ft,2017-10-24 02:45,76-90,KANSAS R AT DESOTO, KS 06892000: Flow=392cfs,Stage=4.90ft,Floodstage=23ft,2017-10-24 02:30,76-90,STRANGER C NR TONGANOXIE, KS 06891500: Flow=295cfs,Stage=6.45ft,Floodstage=23ft,2017-10-24 02:45,76-90,WAKARUSA R NR LAWRENCE, KS 06887000: Flow=2000cfs,Stage=3.73ft,Floodstage=19ft,2017-10-24 02:00,76-90,BIG BLUE R NR MANHATTAN, KS 06882000: Flow=386cfs,Stage=4.16ft,Floodstage=20ft,2017-10-24 02:00,76-90,Big Blue River at Barneston, Nebr. 06876700: Flow=16.1cfs,Stage=4.39ft,Floodstage=18ft,2017-10-24 02:45,76-90,SALT C NR ADA, KS 06873000: Flow=45.5cfs,Stage=2.23ft,Floodstage=8.5ft,2017-10-24 02:15,76-90,SF SOLOMON R AB WEBSTER RE, KS 06872500: Flow=48.0cfs,Stage=4.19ft,Floodstage=15ft,2017-10-24 02:30,76-90,NF SOLOMON R AT PORTIS, KS 06871500: Flow=15.1cfs,Stage=3.84ft,Floodstage=9ft,2017-10-24 02:45,76-90,BOW C NR STOCKTON, KS 06871000: Flow=32.5cfs,Stage=3.22ft,Floodstage=11ft,2017-10-24 02:30,76-90,NF SOLOMON R AT GLADE, KS 06869500: Flow=73.3cfs,Stage=5.98ft,Floodstage=25ft,2017-10-24 02:30,76-90,SALINE R AT TESCOTT, KS 06867000: Flow=72.3cfs,Stage=5.97ft,Floodstage=18ft,2017-10-24 02:30,76-90,SALINE R NR RUSSELL, KS 06866900: Flow=13.8cfs,Stage=3.05ft,Floodstage=13ft,2017-10-24 02:00,76-90,SALINE R NR WAKEENEY, KS 06862850: Flow=0.66cfs,Stage=2.50ft,Floodstage=11ft,2017-10-24 02:00,76-90,SMOKY HILL R BL SCHOENCHEN, KS 06860000: Flow=1.02cfs,Stage=4.22ft,Floodstage=9ft,2017-10-24 02:30,76-90,SMOKY HILL R AT ELKADER, KS 06818000: Flow=55400cfs,Stage=10.45ft,Floodstage=17ft,2017-10-24 02:30,76-90,Missouri River at St. Joseph, MO 06813500: Flow=51200cfs,Stage=11.39ft,Floodstage=17ft,2017-10-24 02:30,76-90,Missouri River at Rulo, NE 07144910: Flow=4.42cfs,Stage=2.71ft,Floodstage=9ft,2017-10-24 03:00,10-24,SF NINNESCAH R NR PRATT, KS 07143665: Flow=1.90cfs,Stage=-0.15ft,Floodstage=22ft,2017-10-24 02:15,10-24,L ARKANSAS R AT ALTA MILLS, KS 07142300: Flow=0.09cfs,Stage=3.02ft,Floodstage=9ft,2017-10-24 02:00,10-24,RATTLESNAKE C NR MACKSVILLE, KS 06876000: Flow=18.9cfs,Stage=2.64ft,Floodstage=20ft,2017-10-24 02:45,10-24,SOLOMON R AT BELOIT, KS 06875900: Flow=12.2cfs,Stage=7.35ft,Floodstage=21ft,2017-10-24 02:30,10-24,SOLOMON R NR GLEN ELDER, KS 06854500: Flow=70.8cfs,Stage=0.54ft,Floodstage=10ft,2017-10-24 02:15,10-24,REPUBLICAN R AT SCANDIA, KS 06853500: Flow=43.6cfs,Stage=1.37ft,Floodstage=11ft,2017-10-24 02:30,10-24,REPUBLICAN R NR HARDY, NE 06824000: Flow=7.51cfs,Stage=0.61ft,2017-10-24 01:45,10-24,Rock Creek at Parks, Nebr. 07182510: Flow=50.5cfs,Stage=5.78ft,Floodstage=27ft,2017-10-24 02:15,25-75,NEOSHO R AT BURLINGTON, KS 07182250: Flow=80.8cfs,Stage=2.25ft,Floodstage=32ft,2017-10-24 03:00,25-75,COTTONWOOD R NR PLYMOUTH, KS 07180500: Flow=5.93cfs,Stage=4.23ft,2017-10-24 02:15,25-75,CEDAR C NR CEDAR POINT, KS 07180400: Flow=45.3cfs,Stage=3.25ft,Floodstage=22ft,2017-10-24 02:15,25-75,COTTONWOOD R NR FLORENCE, KS 07179730: Flow=24.1cfs,Stage=2.76ft,Floodstage=26ft,2017-10-24 02:15,25-75,NEOSHO R NR AMERICUS, KS 07179500: Flow=5.10cfs,Stage=7.95ft,2017-10-24 03:00,25-75,NEOSHO R AT COUNCIL GROVE, KS 07166500: Flow=180cfs,Stage=3.78ft,Floodstage=19ft,2017-10-24 02:45,25-75,VERDIGRIS R NR ALTOONA, KS 07157500: Flow=5.22cfs,Stage=2.23ft,Floodstage=6.5ft,2017-10-24 02:30,25-75,CROOKED C NR ENGLEWOOD, KS 07151500: Flow=59.2cfs,Stage=2.14ft,Floodstage=10ft,2017-10-24 03:00,25-75,CHIKASKIA R NR CORBIN, KS 07149000: Flow=54.3cfs,Stage=0.49ft,Floodstage=10ft,2017-10-24 02:30,25-75,MEDICINE LODGE R NR KIOWA, KS 07147070: Flow=38.4cfs,Stage=1.84ft,2017-10-24 02:30,25-75,WHITEWATER R AT TOWANDA, KS 07145500: Flow=142cfs,Stage=2.85ft,Floodstage=17ft,2017-10-24 03:00,25-75,NINNESCAH R NR PECK, KS 07145200: Flow=107cfs,Stage=3.75ft,Floodstage=8ft,2017-10-24 03:00,25-75,SF NINNESCAH R NR MURDOCK, KS 07144780: Flow=56.7cfs,Stage=6.21ft,2017-10-24 02:30,25-75,NF NINNESCAH R AB CHENEY RE, KS 07144550: Flow=527cfs,Stage=1.83ft,Floodstage=12ft,2017-10-24 03:00,25-75,ARKANSAS R AT DERBY, KS 07144300: Flow=368cfs,Stage=3.63ft,2017-10-24 02:45,25-75,ARKANSAS R AT WICHITA, KS 07144200: Flow=27.5cfs,Stage=0.84ft,2017-10-24 02:00,25-75,L ARKANSAS R AT VALLEY CENTER, KS 07143375: Flow=296cfs,Stage=5.75ft,2017-10-24 02:15,25-75,ARKANSAS R NR MAIZE, KS 07143330: Flow=204cfs,Stage=2.59ft,Floodstage=10ft,2017-10-24 02:30,25-75,ARKANSAS R NR HUTCHINSON, KS 07143300: Flow=11.3cfs,Stage=4.56ft,Floodstage=18ft,2017-10-24 02:30,25-75,COW C NR LYONS, KS 07142575: Flow=8.19cfs,Stage=11.72ft,Floodstage=17ft,2017-10-24 02:30,25-75,RATTLESNAKE C NR ZENITH, KS 07141900: Flow=4.66cfs,Stage=2.83ft,Floodstage=24ft,2017-10-24 02:45,25-75,WALNUT C AT ALBERT, KS 07141780: Flow=4.42cfs,Stage=6.64ft,Floodstage=29ft,2017-10-24 02:15,25-75,WALNUT C AT NEKOMA, KS 07141300: Flow=52.8cfs,Stage=1.54ft,Floodstage=12ft,2017-10-24 02:30,25-75,ARKANSAS R AT GREAT BEND, KS 07141200: Flow=0.49cfs,Stage=6.92ft,Floodstage=31ft,2017-10-24 02:30,25-75,PAWNEE R AT ROZEL, KS 06915000: Flow=10.1cfs,Stage=2.03ft,2017-10-24 02:30,25-75,BIG BULL C NR HILLSDALE, KS 06912500: Flow=20.2cfs,Stage=2.73ft,2017-10-24 02:45,25-75,HUNDRED AND TEN MILE C NR QUENEMO, KS 06911900: Flow=0.15cfs,Stage=7.88ft,Floodstage=19ft,2017-10-24 02:00,25-75,DRAGOON C NR BURLINGAME, KS 06910800: Flow=1.35cfs,Stage=2.12ft,Floodstage=19ft,2017-10-24 02:45,25-75,MARAIS DES CYGNES R NR READING, KS 06893000: Flow=63400cfs,Stage=13.32ft,Floodstage=32ft,2017-10-24 02:30,25-75,Missouri River at Kansas City, MO 06891000: Flow=2860cfs,Stage=3.18ft,Floodstage=17ft,2017-10-24 02:30,25-75,KANSAS R AT LECOMPTON, KS 06890900: Flow=87.8cfs,Stage=28.19ft,2017-10-24 02:30,25-75,DELAWARE R AT PERRY, KS 06890100: Flow=12.2cfs,Stage=2.34ft,Floodstage=27ft,2017-10-24 02:45,25-75,DELAWARE R NR MUSCOTAH, KS 06889500: Flow=22.0cfs,Stage=0.19ft,Floodstage=29ft,2017-10-24 03:00,25-75,SOLDIER C NR TOPEKA, KS 06889200: Flow=6.76cfs,Stage=6.38ft,Floodstage=26ft,2017-10-24 02:30,25-75,SOLDIER C NR DELIA, KS 06889000: Flow=2960cfs,Stage=6.23ft,Floodstage=26ft,2017-10-24 02:30,25-75,KANSAS R AT TOPEKA, KS 06888500: Flow=13.0cfs,Stage=2.35ft,Floodstage=21ft,2017-10-24 02:45,25-75,MILL C NR PAXICO, KS 06888350: Flow=2460cfs,Stage=6.94ft,Floodstage=20ft,2017-10-24 02:30,25-75,KANSAS R NR BELVUE, KS 06888000: Flow=12.5cfs,Stage=3.69ft,2017-10-24 02:45,25-75,VERMILLION C NR WAMEGO, KS 06887500: Flow=2780cfs,Stage=4.98ft,Floodstage=19ft,2017-10-24 02:30,25-75,KANSAS R AT WAMEGO, KS 06885500: Flow=10.8cfs,Stage=3.07ft,Floodstage=19ft,2017-10-24 02:30,25-75,BLACK VERMILLION R NR FRANKFORT, KS 06884400: Flow=136cfs,Stage=3.82ft,Floodstage=21ft,2017-10-24 02:30,25-75,L BLUE R NR BARNES, KS 06884200: Flow=10.7cfs,Stage=1.65ft,Floodstage=18ft,2017-10-24 02:45,25-75,MILL C AT WASHINGTON, KS 06884025: Flow=130cfs,Stage=1.86ft,Floodstage=19ft,2017-10-24 03:00,25-75,Little Blue River at Hollenberg, KS 06882510: Flow=354cfs,Stage=12.01ft,Floodstage=35ft,2017-10-24 02:30,25-75,BIG BLUE R AT MARYSVILLE, KS 06879100: Flow=498cfs,Stage=5.76ft,Floodstage=21ft,2017-10-24 02:30,25-75,KANSAS R AT FORT RILEY, KS 06878000: Flow=21.1cfs,Stage=4.51ft,Floodstage=19ft,2017-10-24 02:45,25-75,CHAPMAN C NR CHAPMAN, KS 06877600: Flow=278cfs,Stage=6.81ft,Floodstage=26ft,2017-10-24 02:45,25-75,SMOKY HILL R AT ENTERPRISE, KS 06876900: Flow=104cfs,Stage=3.46ft,Floodstage=24ft,2017-10-24 02:30,25-75,SOLOMON R AT NILES, KS 06874000: Flow=28.4cfs,Stage=3.86ft,Floodstage=14ft,2017-10-24 02:30,25-75,SF SOLOMON R AT OSBORNE, KS 06873460: Flow=6.38cfs,Stage=4.34ft,Floodstage=12ft,2017-10-24 02:30,25-75,SF SOLOMON R AT WOODSTON, KS 06866500: Flow=103cfs,Stage=4.30ft,Floodstage=20ft,2017-10-24 02:45,25-75,SMOKY HILL R NR MENTOR, KS 06866000: Flow=106cfs,Stage=6.80ft,Floodstage=21ft,2017-10-24 02:30,25-75,SMOKY HILL R AT LINDSBORG, KS 06865500: Flow=93.7cfs,Stage=3.48ft,2017-10-24 02:30,25-75,SMOKY HILL R NR LANGLEY, KS 06864500: Flow=33.3cfs,Stage=1.72ft,Floodstage=20ft,2017-10-24 02:30,25-75,SMOKY HILL R AT ELLSWORTH, KS 06864000: Flow=32.5cfs,Stage=3.62ft,Floodstage=18ft,2017-10-24 02:30,25-75,SMOKY HILL R NR RUSSELL, KS 06863500: Flow=7.86cfs,Stage=5.25ft,Floodstage=26ft,2017-10-24 02:30,25-75,BIG C NR HAYS, KS 06862700: Flow=3.22cfs,Stage=3.53ft,2017-10-24 02:30,25-75,SMOKY HILL R NR SCHOENCHEN, KS 06861000: Flow=0.11cfs,Stage=0.29ft,Floodstage=7ft,2017-10-24 02:30,25-75,SMOKY HILL R NR ARNOLD, KS 06856600: Flow=184cfs,Stage=6.88ft,Floodstage=15ft,2017-10-24 02:30,25-75,REPUBLICAN R AT CLAY CENTER, KS 06856000: Flow=102cfs,Stage=4.56ft,Floodstage=15ft,2017-10-24 02:30,25-75,REPUBLICAN R AT CONCORDIA, KS 06853800: Flow=4.40cfs,Stage=1.63ft,Floodstage=16ft,2017-10-24 02:45,25-75,WHITE ROCK C NR BURR OAK, KS 06847900: Flow=2.11cfs,Stage=3.49ft,Floodstage=11ft,2017-10-24 02:45,25-75,PRAIRIE DOG C AB KEITH SEBELIUS LAKE, KS 06815000: Flow=117cfs,Stage=4.20ft,Floodstage=27ft,2017-10-24 02:45,25-75,Big Nemaha River at Falls City, Nebr. 06814000: Flow=6.59cfs,Stage=1.10ft,Floodstage=21ft,2017-10-24 02:45,25-75,TURKEY C NR SENECA, KS 375350097262800: Stage=4.49ft,2017-10-24 02:00,Not ranked,L ARKANSAS R UPSTREAM OF ASR FAC NR SEDGWICK, KS 07187600: Flow=3190cfs,Stage=4.66ft,Floodstage=14ft,2017-10-24 02:30,Not ranked,SPRING R NR BAXTER SPRINGS, KS 07186055: Flow=357cfs,Stage=7.23ft,2017-10-24 02:45,Not ranked,COW C NR SCAMMON, KS 07185090: Flow=53.8cfs,Stage=8.97ft,2017-10-24 02:15,Not ranked,Tar Creek near Commerce, OK 07184500: Flow=247cfs,Stage=7.56ft,2017-10-24 02:00,Not ranked,LABETTE C NR OSWEGO, KS 07183300: Stage=14.06ft,Floodstage=29ft,2017-10-24 02:15,Not ranked,NEOSHO R NR ERIE, KS 07182395: Stage=-0.67ft,2017-10-24 03:00,Not ranked,NEOSHO R AT HARTFORD, KS 07182390: Flow=155cfs,Stage=0.93ft,Floodstage=22ft,2017-10-24 02:30,Not ranked,NEOSHO R AT NEOSHO RAPIDS, KS 07182260: Flow=105cfs,Stage=1.78ft,Floodstage=20ft,2017-10-24 02:30,Not ranked,COTTONWOOD R AT EMPORIA, KS 07182200: Flow=5.62cfs,Stage=6.55ft,2017-10-24 02:30,Not ranked,SF COTTONWOOD R NR BAZAAR, KS 07180200: Stage=4.98ft,2017-10-24 02:30,Not ranked,COTTONWOOD R AT MARION, KS 07179785: Flow=1.02cfs,Stage=9.42ft,2017-10-24 02:30,Not ranked,NF COTTONWOOD R NR DURHAM, KS 07179750: Flow=18.4cfs,Stage=3.51ft,2017-10-24 02:30,Not ranked,NEOSHO R AT BURLINGAME RD NR EMPORIA, KS 07179710: Stage=11.01ft,2017-10-24 02:00,Not ranked,NEOSHO R NR DUNLAP, KS 07179700: Flow=6.67cfs,Stage=9.30ft,2017-10-24 02:15,Not ranked,ROCK C NR DUNLAP, KS 07179300: Flow=1.20cfs,Stage=7.79ft,2017-10-24 02:45,Not ranked,NEOSHO R NR PARKERVILLE, KS 07170990: Flow=2440cfs,Stage=6.42ft,2017-10-24 02:45,Not ranked,VERDIGRIS R AT COFFEYVILLE, KS 07170700: Stage=4.21ft,2017-10-24 02:00,Not ranked,BIG HILL C NR CHERRYVALE, KS 07165750: Flow=99.0cfs,Stage=7.72ft,2017-10-24 03:00,Not ranked,VERDIGRIS R NR VIRGIL, KS 07157940: Flow=0.74cfs,Stage=5.04ft,2017-10-24 03:00,Not ranked,BLUFF C NR BUTTERMILK, KS 07157740: Flow=1.37cfs,Stage=6.98ft,2017-10-24 02:15,Not ranked,CIMARRON R NR BUTTERMILK, KS 07148111: Flow=227cfs,Stage=5.30ft,2017-10-24 02:30,Not ranked,GROUSE C NR SILVERDALE, KS 07147900: Stage=4.12ft,Floodstage=18ft,2017-10-24 02:15,Not ranked,WALNUT R AT ARKANSAS CITY, KS 07147190: Stage=4.02ft,Floodstage=21ft,2017-10-24 02:15,Not ranked,WHITEWATER R AT AUGUSTA, KS 07146800: Flow=4.19cfs,Stage=5.63ft,Floodstage=21ft,2017-10-24 02:00,Not ranked,WB WALNUT R NR EL DORADO, KS 07145600: Flow=927cfs,Stage=8.38ft,Floodstage=17ft,2017-10-24 02:45,Not ranked,ARKANSAS R ON HWY 160 AT OXFORD, KS 07144790: Stage=1420.89ft,2017-10-24 02:00,Not ranked,CHENEY RE NR CHENEY, KS 07144570: Flow=604cfs,Stage=6.78ft,Floodstage=16.5ft,2017-10-24 02:15,Not ranked,ARKANSAS R AT MULVANE, KS 07144490: Flow=3.96cfs,Stage=7.30ft,2017-10-24 02:15,Not ranked,COWSKIN C AT KELLOGG ST, WICHITA, KS 07144486: Flow=0.01cfs,Stage=4.58ft,2017-10-24 03:00,Not ranked,CALFSKIN C AT 119TH ST, WICHITA, KS 07144480: Flow=3.98cfs,Stage=7.37ft,Floodstage=18ft,2017-10-24 02:30,Not ranked,COWSKIN C AT 119TH ST AT WICHITA, KS 07144470: Stage=11.43ft,2017-10-24 02:15,Not ranked,COWSKIN C AT 29TH ST NORTH OF WICHITA, KS 07144301: Flow=0.00cfs,Stage=6.49ft,2017-10-24 02:45,Not ranked,FLOODWAY AT ARKANSAS R AT WICHITA, KS 07144201: Flow=0.00cfs,Stage=2.58ft,2017-10-24 02:00,Not ranked,FLOODWAY AT L ARKANSAS R AT VALLEY CENTER, KS 07144100: Flow=20.1cfs,Stage=2.59ft,Floodstage=22ft,2017-10-24 02:15,Not ranked,L ARKANSAS R NR SEDGWICK, KS 07144050: Flow=3.29cfs,Stage=-1.05ft,Floodstage=19ft,2017-10-24 02:15,Not ranked,EMMA C AT SEDGWICK, KS 07143672: Flow=15.6cfs,Stage=5.70ft,Floodstage=25ft,2017-10-24 02:30,Not ranked,L ARKANSAS R AT HWY 50 NR HALSTEAD, KS 07143310: Stage=2.15ft,Floodstage=9.5ft,2017-10-24 02:15,Not ranked,COW C NR HUTCHINSON, KS 07142680: Flow=200cfs,Stage=9.67ft,2017-10-24 02:00,Not ranked,ARKANSAS R NR NICKERSON, KS 07142019: Flow=2.04cfs,Stage=2.04ft,2017-10-24 03:00,Not ranked,CHEYENNE BOTTOMS DV NR GREAT BEND, KS 07141220: Flow=45.0cfs,Stage=4.44ft,2017-10-24 03:00,Not ranked,ARKANSAS R NR LARNED, KS 07141000: Flow=0.07cfs,Stage=3.64ft,2017-10-24 02:45,Not ranked,BUCKNER C AT HANSTON, KS 07140900: Flow=3.22cfs,Stage=2.67ft,2017-10-24 02:15,Not ranked,BUCKNER C NR JETMORE, KS 07140890: Flow=2.80cfs,Stage=3.11ft,2017-10-24 02:45,Not ranked,BUCKNER C BL HORSETHIEF RE NR JETMORE, KS 07140880: Stage=3.92ft,2017-10-24 02:15:00,Not ranked,Back Water,BUCKNER C AB HORSETHIEF RE NR JETMORE, KS 07140850: Flow=0.00cfs,Stage=2.26ft,Floodstage=30ft,2017-10-24 02:00,Not ranked,PAWNEE R NR BURDETT, KS 07139500: Stage=6.00ft,Floodstage=11ft,2017-10-24 02:00,Not ranked,ARKANSAS R AT DODGE CITY, KS 07138075: Flow=5.31cfs,2017-10-18 15:45,Stage=1.61ft,2017-10-24 02:00:00,Not ranked,FARMERS DITCH NR DEERFIELD, KS 07138070: Flow=204cfs,Stage=8.31ft,Floodstage=14ft,2017-10-24 02:45,Not ranked,ARKANSAS R AT DEERFIELD, KS 07138064: Flow=0.00cfs,Stage=1.98ft,2017-10-24 02:15,Not ranked,SOUTHSIDE DITCH RETURN NR DEERFIELD, KS 07138063: Flow=3.00cfs,2017-09-24 02:45,Stage=1.30ft,2017-10-24 02:00:00,Not ranked,SOUTHSIDE DITCH NR LAKIN, KS 07138050: Stage=2.61ft,2017-10-24 02:00:00,Not ranked,Equipment malfunction,AMAZON GREAT EASTERN DITCH NR LAKIN, KS 07138020: Flow=240cfs,Stage=6.97ft,2017-10-24 02:45,Not ranked,ARKANSAS R AT KENDALL, KS 07137010: Flow=0.00cfs,Stage=1.93ft,2017-10-24 02:45,Not ranked,FRONTIER DITCH RETURN NR COOLIDGE, KS 07137000: Flow=0.00cfs,Stage=9.19ft,2017-10-24 02:45,Not ranked,FRONTIER DITCH NR COOLIDGE, KS 07134990: Flow=8.67cfs,Stage=2.59ft,2017-10-24 01:15,Not ranked,WILD HORSE CREEK ABOVE HOLLY, CO 06917630: Flow=3.71cfs,Stage=1.85ft,2017-10-24 02:15,Not ranked,East Drywood Creek at Prairie State Park 06917560: Flow=2560cfs,Stage=14.11ft,Floodstage=25ft,2017-10-24 02:15,Not ranked,Marmaton River near Richards, MO 06917240: Flow=179cfs,Stage=1.56ft,2017-10-24 03:00,Not ranked,MARMATON R NR UNIONTOWN, KS 06914995: Stage=918.92ft,2017-10-24 02:30,Not ranked,HILLSDALE LK NR HILLSDALE, KS 06914990: Flow=6.51cfs,Stage=3.28ft,2017-10-24 02:30,Not ranked,L BULL C NR SPRING HILL, KS 06914950: Flow=25.9cfs,Stage=2.62ft,2017-10-24 03:00,Not ranked,BIG BULL C NR EDGERTON, KS 06914500: Flow=2910cfs,Stage=10.62ft,Floodstage=23ft,2017-10-24 02:30,Not ranked,POTTAWATOMIE C AT LANE, KS 06914100: Flow=914cfs,Stage=8.45ft,Floodstage=23ft,2017-10-24 02:45,Not ranked,POTTAWATOMIE C NR SCIPIO, KS 06912490: Stage=976.52ft,2017-10-24 02:45,Not ranked,POMONA LK NR QUENEMO, KS 06911490: Flow=2.19cfs,Stage=0.62ft,Floodstage=10ft,2017-10-24 02:30,Not ranked,SALT C AT LYNDON, KS 06911000: Stage=2.47ft,2017-10-24 02:45:00,Not ranked,Back Water,MARAIS DES CYGNES R AT MELVERN, KS 06910997: Stage=1036.11ft,2017-10-24 02:30,Not ranked,MELVERN LK NR MELVERN, KS 06893578: Flow=313cfs,Stage=6.64ft,Floodstage=33ft,2017-10-24 02:30,Not ranked,Blue River at Stadium Drive in Kansas City, MO 06893562: Stage=4.52ft,2017-10-24 02:45,Not ranked,Brush Creek at Rockhill Road in Kansas City, MO 06893557: Flow=6.16cfs,Stage=35.84ft,Floodstage=47ft,2017-10-24 02:15,Not ranked,Brush Creek at Ward Parkway in Kansas City, MO 06893400: Stage=83.40ft,2017-10-24 02:30,Not ranked,Indian Creek at 103rd St in Kansas City, MO 06893390: Flow=83.9cfs,Stage=10.52ft,Floodstage=20ft,2017-10-24 02:30,Not ranked,INDIAN C AT STATE LINE RD, LEAWOOD, KS 06893350: Flow=19.0cfs,Stage=2.33ft,2017-10-24 02:15,Not ranked,TOMAHAWK C NR OVERLAND PARK, KS 06893150: Flow=141cfs,Stage=25.72ft,Floodstage=35ft,2017-10-24 03:00,Not ranked,Blue River at Blue Ridge Blvd Ext in KC, MO 06893100: Flow=71.8cfs,Stage=5.71ft,2017-10-24 02:30,Not ranked,BLUE R AT KENNETH RD, OVERLAND PARK, KS 06893080: Stage=4.81ft,2017-10-24 02:45:00,Floodstage=16ft,Not ranked,Back Water,BLUE R NR STANLEY, KS 06892950: Stage=14.55ft,Floodstage=33ft,2017-10-24 02:45,Not ranked,KANSAS R AT KANSAS CITY, KS 06892518: Flow=5820cfs,Stage=11.19ft,2017-10-24 02:45,Not ranked,KANSAS R NR LAKE QUIVIRA, KS 06892513: Flow=64.0cfs,Stage=49.21ft,2017-10-24 02:30,Not ranked,MILL C AT JOHNSON DRIVE, SHAWNEE, KS 06892495: Flow=81.4cfs,Stage=57.71ft,2017-10-24 02:45,Not ranked,CEDAR C NR DESOTO, KS 06892494: Stage=3.36ft,2017-10-24 03:00,Not ranked,CAMP C AT 95TH ST NR DESOTO, KS 06892493: Stage=77.22ft,2017-10-24 03:00,Not ranked,CEDAR C AT 95TH ST NR DESOTO, KS 06892360: Flow=55.4cfs,Stage=5.68ft,2017-10-24 02:30,Not ranked,KILL C AT 95TH ST NR DESOTO, KS 06891850: Flow=97.4cfs,Stage=3.13ft,Floodstage=17ft,2017-10-24 02:30,Not ranked,STRANGER C AT EASTON, KS 06891478: Stage=877.56ft,2017-10-24 02:00,Not ranked,CLINTON LK NR LAWRENCE, KS 06891260: Flow=26.7cfs,Stage=4.12ft,2017-10-24 02:30,Not ranked,WAKARUSA R NR RICHLAND, KS 06891200: Stage=2.92ft,Floodstage=15ft,2017-10-24 02:15,Not ranked,WAKARUSA R AT WAKARUSA, KS 06891080: Flow=3080cfs,Stage=-11.06ft,Floodstage=18ft,2017-10-24 02:45,Not ranked,KANSAS R AT LAWRENCE, KS 06890898: Stage=893.22ft,2017-10-24 02:30,Not ranked,PERRY LK NR PERRY, KS 06889630: Flow=3.86cfs,Stage=4.31ft,Floodstage=24ft,2017-10-24 02:15,Not ranked,SHUNGANUNGA C AT TOPEKA, KS 06889585: Stage=4.90ft,Floodstage=15ft,2017-10-24 02:15,Not ranked,SHUNGANUNGA C AT GAGE BLVD, TOPEKA, KS 06888990: Flow=2860cfs,Stage=6.17ft,2017-10-24 02:30,Not ranked,KANSAS R AT TOPEKA WATER PLANT, KS 06888700: Stage=7.22ft,Floodstage=25ft,2017-10-24 02:30,Not ranked,CROSS C AT ROSSVILLE, KS 06888300: Flow=4.89cfs,Stage=8.46ft,Floodstage=27ft,2017-10-24 02:00,Not ranked,ROCK C NR LOUISVILLE, KS 06886900: Stage=1082.43ft,2017-10-24 02:00,Not ranked,TUTTLE C LK NR MANHATTAN, KS 06886850: Flow=4.38cfs,Stage=4.86ft,2017-10-24 02:45,Not ranked,MILL C NR RILEY, KS 06886500: Flow=13.1cfs,Stage=0.88ft,Floodstage=16ft,2017-10-24 02:15,Not ranked,FANCY C AT WINKLER, KS 06884700: Stage=15.93ft,Floodstage=26ft,2017-10-24 02:15,Not ranked,BIG BLUE R AT BLUE RAPIDS, KS 06879820: Stage=5.64ft,Floodstage=18ft,2017-10-24 03:00,Not ranked,KANSAS R AT MANHATTAN, KS 06879815: Stage=2.43ft,2017-10-24 03:00,Not ranked,WILDCAT C AT SETH CHILDS RD, MANHATTAN, KS 06879810: Flow=3.45cfs,Stage=2.45ft,Floodstage=14ft,2017-10-24 02:15,Not ranked,WILDCAT C AT SCENIC DRIVE, MANHATTAN, KS 06879805: Stage=7.14ft,2017-10-24 02:00,Not ranked,WILDCAT C AT KEATS, KS 06879650: Flow=0.00cfs,Stage=2.06ft,2017-10-21 17:00,Not ranked,KINGS C NR MANHATTAN, KS 06878600: Flow=13.5cfs,Stage=5.39ft,Floodstage=21ft,2017-10-24 02:15,Not ranked,LYON C NR JUNCTION CITY, KS 06876440: Flow=52.6cfs,Stage=2.35ft,Floodstage=26ft,2017-10-24 02:15,Not ranked,SOLOMON R NR MINNEAPOLIS, KS 06876070: Stage=7.20ft,2017-10-24 02:15,Not ranked,SOLOMON R NR SIMPSON, KS 06870300: Flow=1.19cfs,Stage=19.57ft,2017-10-24 02:15,Not ranked,GYPSUM C NR GYPSUM, KS 06870200: Stage=5.80ft,Floodstage=27ft,2017-10-24 02:45,Not ranked,SMOKY HILL R AT NEW CAMBRIA, KS 06869950: Flow=2.01cfs,Stage=2.73ft,Floodstage=24ft,2017-10-24 02:00,Not ranked,MULBERRY C NR SALINA, KS 06868850: Flow=82.9cfs,Stage=11.86ft,Floodstage=30ft,2017-10-24 02:45,Not ranked,SALINE R AT LINCOLN, KS 06868100: Stage=1517.13ft,2017-10-24 02:30,Not ranked,WILSON LK NR WILSON, KS 06867500: Flow=1.04cfs,Stage=8.54ft,2017-10-24 02:30,Not ranked,PARADISE C NR PARADISE, KS 06865000: Stage=1465.54ft,2017-10-24 02:30,Not ranked,KANOPOLIS LK NR KANOPOLIS, KS 06863420: Flow=3.28cfs,Stage=1.67ft,2017-10-24 02:15,Not ranked,BIG C NR ELLIS, KS 06863000: Flow=4.10cfs,Stage=1.42ft,2017-10-24 03:00,Not ranked,SMOKY HILL R AT PFEIFER, KS 06861500: Stage=2118.24ft,2017-10-24 02:15,Not ranked,CEDAR BLUFF RE NR ELLIS, KS 06860900: Flow=0.00cfs,Stage=7.01ft,2017-10-24 02:30,Not ranked,HACKBERRY C NR TREGO CENTER, KS 06857050: Stage=1145.42ft,2017-10-24 02:30,Not ranked,MILFORD LK NR JUNCTION CITY, KS 06855850: Flow=5.43cfs,Stage=4.01ft,2017-10-24 02:15,Not ranked,BUFFALO C 4 MI E OF JAMESTOWN, KS 06854000: Stage=-0.12ft,2017-10-24 02:45,Not ranked,WHITE ROCK C AT LOVEWELL, KS 06853020: Flow=4.23cfs,Stage=2.62ft,Floodstage=12.5ft,2017-10-24 02:30,Not ranked,Republican River at Guide Rock, Nebr. 06848500: Flow=0.00cfs,Stage=1.05ft,Floodstage=21ft,2017-10-24 02:30,Not ranked,PRAIRIE DOG C NR WOODRUFF, KS 06846500: Flow=0.00cfs,Stage=2.77ft,Floodstage=16ft,2017-10-24 02:00,Not ranked,BEAVER C AT CEDAR BLUFFS, KS 06845110: Flow=0.38cfs,Stage=4.66ft,Floodstage=17ft,2017-10-24 02:30,Not ranked,SAPPA C NR LYLE, KS 06827500: Flow=0.00cfs,Stage=-0.91ft,Floodstage=9ft,2017-10-24 01:30,Not ranked,South Fork Republican River near Benkelman, Nebr. 06827000: Flow=3.88cfs,Stage=3.16ft,2017-10-24 02:45,Not ranked,SF REPUBLICAN R NR CO-KS ST LINE, KS 06820475: Stage=7.83ft,Floodstage=20ft,2017-10-24 02:00,Not ranked,MISSOURI R AT LEAVENWORTH, KS 06818300: Stage=12.54ft,Floodstage=22ft,2017-10-24 03:00,Not ranked,MISSOURI R AT ATCHISON, KS Go to WaterWatch (offsite) for a larger map with additional options
USGS Home Water Resources Biology Geography Geology Geospatial

Accessibility FOIA Privacy Policies and Notices

Take Pride in America logo USA.gov logo U.S. Department of the Interior | U.S. Geological Survey
Page Contact Information: GS-W-KS_info@usgs.gov
Page Last Modified: 2017-10-13 11:20:27 CDT